| time (UTC) | temp F | wind direction | speed knots | gust knots | rain 1hr in | rain 24hr in | rain mn in | humidity % | barometer mb |
| 20260504045549 | 51 | 340 | 5.2 | 12.2 | 5.16 | 0.00 | 0.00 | ||
| 20260504044249 | 52 | 284 | 4.3 | 12.2 | 5.16 | 0.00 | 0.00 | ||
| 20260504042949 | 52 | 288 | 4.3 | 10.4 | 5.16 | 0.00 | 0.00 | ||
| 20260504041649 | 52 | 285 | 7.0 | 13.0 | 5.16 | 0.00 | 0.00 | ||
| 20260504040350 | 53 | 287 | 6.1 | 16.5 | 5.16 | 0.00 | 0.00 | ||
| 20260504035050 | 53 | 347 | 10.4 | 20.0 | 5.16 | 0.00 | 0.00 | ||
| 20260504033749 | 54 | 345 | 7.0 | 15.6 | 5.16 | 0.00 | 0.00 | ||
| 20260504032449 | 54 | 6 | 8.7 | 16.5 | 5.16 | 0.00 | 0.00 | ||
| 20260504031149 | 55 | 335 | 10.4 | 21.7 | 5.16 | 0.00 | 0.00 | ||
| 20260504025849 | 55 | 352 | 10.4 | 17.4 | 5.16 | 0.00 | 0.00 | ||
| 20260504024549 | 56 | 333 | 10.4 | 19.1 | 5.16 | 0.00 | 0.00 | ||
| 20260504023249 | 56 | 352 | 10.4 | 19.1 | 5.16 | 0.00 | 0.00 | ||
| 20260504021949 | 57 | 3 | 7.0 | 11.3 | 5.16 | 0.00 | 0.00 | ||
| 20260504020649 | 57 | 359 | 10.4 | 16.5 | 5.16 | 0.00 | 0.00 | ||
| 20260504015349 | 58 | 353 | 13.0 | 22.6 | 5.16 | 0.00 | 0.00 | ||
| 20260504014049 | 59 | 15 | 12.2 | 20.0 | 5.16 | 0.00 | 0.00 | ||
| 20260504012749 | 59 | 359 | 13.9 | 25.2 | 5.16 | 0.00 | 0.00 | ||
| 20260504011449 | 60 | 8 | 11.3 | 21.7 | 5.16 | 0.00 | 0.00 | ||
| 20260504010149 | 63 | 339 | 12.2 | 20.9 | 5.16 | 0.00 | 0.00 | ||
| 20260504004849 | 63 | 343 | 9.6 | 24.3 | 5.16 | 0.00 | 0.00 | ||
| 20260504003549 | 64 | 347 | 8.7 | 20.9 | 5.16 | 0.00 | 0.00 | ||
| 20260504002249 | 64 | 342 | 10.4 | 21.7 | 5.16 | 0.00 | 0.00 | ||
| 20260504000949 | 66 | 311 | 7.0 | 17.4 | 5.16 | 0.00 | 0.00 | ||
| 20260503235649 | 67 | 326 | 6.1 | 13.9 | 5.16 | 0.00 | 0.00 | ||
| 20260503234349 | 66 | 357 | 5.2 | 12.2 | 5.16 | 0.00 | 0.00 | ||
| 20260503233049 | 66 | 290 | 6.1 | 13.9 | 5.16 | 0.00 | 0.00 | ||
| 20260503231749 | 66 | 349 | 6.1 | 17.4 | 5.16 | 0.00 | 0.00 | ||
| 20260503230449 | 67 | 27 | 6.1 | 12.2 | 5.16 | 0.00 | 0.00 | ||
| 20260503225149 | 66 | 290 | 5.2 | 19.1 | 5.16 | 0.00 | 0.00 | ||
| 20260503223849 | 67 | 280 | 6.1 | 16.5 | 5.16 | 0.00 | 0.00 | ||
| 20260503222549 | 67 | 336 | 7.0 | 17.4 | 5.16 | 0.00 | 0.00 | ||
| 20260503221249 | 66 | 342 | 8.7 | 19.1 | 5.16 | 0.00 | 0.00 | ||
| 20260503215949 | 68 | 333 | 9.6 | 20.0 | 5.16 | 0.00 | 0.00 | ||
| 20260503214649 | 70 | 281 | 7.0 | 14.8 | 5.16 | 0.00 | 0.00 | ||
| 20260503213349 | 70 | 0 | 6.1 | 13.0 | 5.16 | 0.00 | 0.00 | ||
| 20260503212049 | 70 | 0 | 7.0 | 13.9 | 5.16 | 0.00 | 0.00 | ||
| 20260503210749 | 70 | 21 | 6.1 | 14.8 | 5.16 | 0.00 | 0.00 | ||
| 20260503205449 | 69 | 352 | 7.8 | 17.4 | 5.16 | 0.00 | 0.00 | ||
| 20260503204149 | 69 | 278 | 6.1 | 13.9 | 5.16 | 0.00 | 0.00 | ||
| 20260503201549 | 68 | 298 | 6.1 | 13.0 | 5.16 | 0.00 | 0.00 | ||
| 20260503200249 | 69 | 340 | 4.3 | 17.4 | 5.16 | 0.00 | 0.00 | ||
| 20260503194949 | 68 | 283 | 5.2 | 11.3 | 5.16 | 0.00 | 0.00 | ||
| 20260503193649 | 67 | 297 | 5.2 | 12.2 | 5.16 | 0.00 | 0.00 | ||
| 20260503192349 | 67 | 6 | 5.2 | 11.3 | 5.16 | 0.00 | 0.00 | ||
| 20260503191049 | 66 | 285 | 8.7 | 18.2 | 5.16 | 0.00 | 0.00 | ||
| 20260503185749 | 66 | 305 | 5.2 | 10.4 | 5.16 | 0.00 | 0.00 | ||
| 20260503184449 | 65 | 271 | 6.1 | 12.2 | 5.16 | 0.00 | 0.00 | ||
| 20260503183149 | 66 | 287 | 5.2 | 10.4 | 5.16 | 0.00 | 0.00 | ||
| 20260503181849 | 66 | 284 | 5.2 | 15.6 | 5.16 | 0.00 | 0.00 | ||
| 20260503180549 | 65 | 307 | 7.8 | 14.8 | 5.16 | 0.00 | 0.00 | ||
| 20260503175249 | 65 | 290 | 7.0 | 18.2 | 5.16 | 0.00 | 0.00 | ||
| 20260503173949 | 65 | 288 | 7.0 | 16.5 | 5.16 | 0.00 | 0.00 | ||
| 20260503172649 | 65 | 288 | 8.7 | 18.2 | 5.16 | 0.00 | 0.00 | ||
| 20260503171349 | 65 | 300 | 7.0 | 18.2 | 5.16 | 0.00 | 0.00 | ||
| 20260503150348 | 57 | 264 | 7.8 | 9.6 | 5.16 | 0.00 | 0.00 | ||
| 20260503130648 | 45 | 249 | 5.2 | 5.2 | 5.16 | 0.00 | 0.00 | ||
| 20260503120148 | 42 | 250 | 7.0 | 7.8 | 5.16 | 0.00 | 0.00 | ||
| 20260503080748 | 49 | 276 | 6.1 | 8.7 | 5.16 | 0.00 | 0.00 | ||
| 20260503072848 | 50 | 255 | 7.8 | 10.4 | 5.16 | 0.00 | 0.00 | ||
| 20260503071548 | 47 | 262 | 6.1 | 7.8 | 5.16 | 0.00 | 0.00 | ||
| 20260503070248 | 47 | 256 | 7.0 | 7.8 | 5.16 | 0.00 | 0.00 |